User: anonymous   Login
Location: Unspecified
(0.0000°N, 0.0000°E)
Time: 00:10:43
(UTC+00:00)
Language:

Transit 2A Rocket - Orbit

View from above orbital plane
View from above orbital plane
View from above satellite
View from above satellite

Ground track
Ground track

The orbit data is extracted from the following two-line orbital elements,

1    47U 60007C   19258.80877781 -.00000037  00000-0  16784-4 0  9996
2    47  66.6661 172.0016 0223855 146.6217 214.9234 14.42048626 95380
Epoch (UTC): 15 September 2019 19:24:38
Eccentricity: 0.0223855
inclination: 66.6661°
perigee height: 592 km
apogee height: 911 km
right ascension of ascending node: 172.0016°
argument of perigee: 146.6217°
revolutions per day: 14.42048626
mean anomaly at epoch: 214.9234°
orbit number at epoch: 9538

The dashed part of the orbit path shows where the satellite is in the earth's shadow,  

DLR